CamptonHillsWeather.com

Find the Weather for any City, State  
or Zipcode, or Country:

Campton Hills, IL Weather
Local Radar

Local Radar

Graphs, Details
Graphs and Gauges
Detailed Weather
Detailed Reports
Ajax Version (old)
Central Kane Co Summary
Davis Current Weather Graphs
Davis 24 Hour Weather History

CW3778 Data

Weather Underground
Maps
Temperature
Heat Index
Windchill
Humidity
Radar
Dew Point
Wind
Visibility
Visible Satellite
Satellite
Fronts
Snow Depth
Jet Stream
Flight Rules
Forecast Maps
Temperature Forecast
Maximum Temperature Forecast
Minimum Temperature Forecast
Dewpoint Forecast
Prevalent Weather
12Hr Probability of Precip.
Sky Cover
Health Maps
UV Forecast
Air Quality
Peak Air Quality Index
Weather Station
Davis Instruments Vantage Pro
Current Conditions [Select Refresh to Update]

Updated: 4:30pm on 10/21/14

(location)
Currently:
49.3F

Clear
Overcast

High: 53.4 F< 
(12:56pm
Low: 42.9 F 
(7:34am)
Wind: ENE 0 mph
Calm
Gust: 1 mph
Today's High Wind: 10 mph (11:35am)
Humidity: 72%
Pressure: 30.22 in  (Steady
Pressure Rate: 0.010 in/hr
Dew Point: 40.7F
Wind Chill: 49.3 F
Heat Index (feels like): 52.5 F
Comfort Level: Cool
Temperature Rate:  -1.17F/hr
 
5 Day Forecast
 
Tue Wed Thu Fri Sat
Clear Clear Clear Clear Clear
Partly Cloudy Partly Cloudy Chance Rain Partly Cloudy Partly Cloudy
57 55 57 63 66
37 36 46 46 45

Records and Normals
 
Temperature Forecast Normal Record
High 57 0 0
(0)
Low 37 0 0
(0)
 
Links
 
 
Weather Advisories
No Advisories
Full Advisory Text...
Weather Map

Web Cam

Almanac
 
Sunrise:  
7:14am
Moonrise: 
4:55am

Moon Phase:
7%

Sunset: 
6:04pm
Moonset:  
4:59pm
 Star Chart...
Rainfall Totals
Hourly Rain 0.00 in
Daily Rain: 0.00 in
Monthly Rain: 3.18 in
Yearly Rain: 34.10 in
Normal Rain, month to date: 0.00 in
Normal Rain, year to date: 0.00 in
Link to Village of Campton Hills Map

Link to Counties of Illinois Map

Local Weather Exchange Network
Station ID City 
(Click for Map Location)
Neighborhood 
(Click for History)
Last Update (Date & Time) Temperature
 ()
Dew
Point ()
Humidity 
(%)
Wind 
(mph)
from the Wind Gust 
(mph) 
Pressure(in) Hourly
Rain(in)
KILGENEV5 Geneva meso_neigh1 10/21 16:23:54 49.4 40.0 70 5 WNW 7 30.15 0.00
KILSTCHA10 St. Charles Hunt Club 10/21 16:24:06 49.6 42.0 76 0 East 0 29.78 0.00
KILSOUTH6 South Elgin Thornwood 10/21 16:22:54 49.8 42.0 73 7 NE 0 30.08 0.00
KILCAMPT3 Campton Hills Campton Hills 10/21 16:24:07 50.5 38.0 63 0 NW 5 30.23 0.00
KILGENEV6 Geneva Dover Ridge 10/21 16:24:04 49.6 41.0 71 2 NE 2 30.19 0.00
KILSTCHA8 St. Charles Ronzheimer Ave. & S. Tyler Rd. 10/21 16:24:06 49.2 40.0 71 2 NNE 9 30.18 0.00
KILGENEV3 Geneva Mill Creek (NE) 10/21 16:23:55 50.4 41.0 70 0 North 10 30.23 0.00
KILSTCHA1 St Charles CamptonHillsWeather.com Central Kane County 10/21 16:24:02 49.4 41.0 72 1 North 4 30.21 0.00
KILELGIN13 Elgin Creek Side 10/21 16:24:08 51.5 42.0 70 4 ENE 4 29.29 0.00
KILSOUTH5 South Elgin Concord Park 10/21 16:20:02 49.3 40.0 70 3 NNE 0 29.96 0.00
KILGENEV2 Geneva Mill Creek 10/21 16:21:16 49.6 40.0 70 3 NNW 9 30.16 0.00
KILELBUR7 Elburn Cheval-De-Selle 10/21 16:20:33 48.4 39.0 70 2 South 0 30.13 0.00
KILBATAV1 Batavia Tri-Cities on the Fox River 10/21 16:24:00 51.4 40.0 64 0 North 8 30.22 0.00
KILELBUR5 Elburn Prairie Highlands 10/21 16:20:15 50.1 42.0 73 3 NE 10 30.21 0.00
KILBATAV3 Batavia West Batavia 10/21 16:17:01 49.9 41.0 72 7 ENE 0 30.17 0.00
KILELBUR6 Elburn Columbine Square 10/21 16:12:35 50.1 41.0 72 3 East 8 30.15 0.00
KILBATAV5 Batavia Fermi National Accelerator Laboratory 10/21 16:18:35 49.5 41.0 73 3 NNW 9 30.16 0.00
KILWESTC5 West Chicago THEBROWNHOUSE.ORG 10/21 16:24:07 49.9 36.0 59 0 NE 0 30.18 0.00
KILWESTC8 West Chicago Ingalton Hills Estates 10/21 16:24:09 49.0 41.0 74 0 WNW 0 30.33 0.00
KILNORTH11 North Aurora Waterford Oaks 10/21 16:24:04 50.8 41.0 70 5 NNE 8 30.19 0.00
KILELGIN10 Elgin Wing Park 10/21 16:19:46 50.9 37.0 58 1 ENE 2 29.39 0.00
MUP188 Elburn MesoWest ELBRN1 IL US UPR 10/21 15:15:00 51.0 0.0 0 0 North 0 0.00 0.00
KILELGIN14 Elgin Elgin, IL 10/21 16:24:01 48.7 39.0 70 0 NE 5 30.14 0.00
KILCAROL5 Carol Stream Stonehenge Court 10/21 16:20:05 50.0 20.0 30 5 North 6 30.19 0.00
KILGILBE2 Gilberts Gilberts, IL 10/21 16:23:58 48.9 38.0 67 3 ENE 8 30.39 0.00
KILELGIN11 Elgin Trout Park 10/21 16:24:05 47.8 38.0 68 4 NE 7 30.22 0.00
KILWINFI3 Winfield Fredericksburg Farm 10/21 16:23:57 49.0 41.0 74 1 ENE 7 30.11 0.00
KILWINFI2 Winfield Winfield Heights (SarahNet) 10/21 16:20:42 49.7 41.0 72 0 NNE 6 30.19 0.00
KILSLEEP3 Sleepy Hollow SLEEPY HOLLOW 10/21 16:24:10 49.3 39.0 68 1 ESE 2 29.70 0.00
KILCAROL6 Carol Stream Merbach Ct 10/21 16:24:06 49.8 40.0 70 4 South 6 29.82 0.00
KILSLEEP2 Sleepy Hollow Sleepy Hollow Manor 10/21 16:22:28 49.3 41.0 73 6 NE 0 30.12 0.00
KILWARRE2 Warrenville meso_neigh32 10/21 16:24:06 49.6 42.0 74 5 NW 5 30.18 0.00
KILHANOV2 Hanover Park meso_neigh33 10/21 16:23:45 48.7 40.0 72 4 NW 8 30.21 0.00
KILWHEAT8 Wheaton Wheaton Sanitary District 10/21 16:16:20 50.8 43.0 74 6 NE 6 30.19 0.00
KILWHEAT5 Wheaton N9ABF - West Wheaton 10/21 16:23:00 49.7 40.0 70 1 NNW 0 30.16 0.00
KILSCHAU9 Schaumburg Schaumburg West 10/21 16:23:58 49.1 49.0 99 1 NNE 4 30.19 0.00
KILEASTD2 East Dundee Rock Road Industrial Park 10/21 16:21:29 48.7 37.0 63 4 NNE 13 30.19 0.00
KILCARPE6 Carpentersville Carpentersville 10/21 16:23:54 50.2 42.0 74 0 NE 0 29.32 0.00
KILWHEAT11 Wheaton Wheaton SW Orth Ct 10/21 16:24:09 52.7 42.0 66 0 SSE 1 30.30 0.00
KILNAPER19 Naperville Brookdale Lakes 10/21 16:24:09 49.9 42.0 74 0 SW 7 30.16 0.00
Full Advisory Text
No Warnings

Ambient Weather and Weather Underground
 Never base important decisions on this or any weather information obtained from the Internet
Updated Automatically by Ambient Weather's Virtual Weather Station  V13.01